[[{"header":{"parameterUnit":"m.s-1","parameterCategory":1,"la1":30.2991,"la2":30.254,"lo1":-89.0895,"lo2":-89.0444,"dy":0.0017,"dx":0.0017,"nx":28,"ny":28,"refTime":"2024-08-22T21:00:00:Z","depth":0,"parameterNumber":2,"parameterNumberName":"U-component_of_WINDS"},"data":[0,0,0,0,0,0,0,0,0,0,0,0,0,0,0,0,0,0,0,0,0,0,0,0,0,0,0,0,0,0,0,0,0,0,0,0,0,0,0,0,0,0,0,0,0,0,0,0,0,0,0,0,0,0,0,0,0,0,-5.8776,-5.8777,0,-5.8778,-5.8778,-5.8778,-5.8635,-5.8631,-5.8627,-5.8623,-5.8628,-5.8631,-5.8635,0,0,0,0,0,0,0,0,0,0,0,0,0,-5.8653,-5.8656,-5.8776,-5.8777,-5.8777,-5.8778,-5.8778,-5.8778,-5.8635,-5.8631,-5.8626,-5.8622,-5.8626,-5.8631,-5.8635,0,0,0,0,0,0,0,0,0,0,0,0,0,-5.8686,-5.8657,-5.8776,-5.8705,-5.8699,-5.8778,-5.8778,-5.8778,-5.8636,-5.8631,-5.8625,-5.862,-5.8625,-5.863,-5.8636,-5.8784,0,0,-5.8653,-5.8655,0,0,0,0,0,0,0,0,-5.8684,-5.8691,-5.8716,-5.871,-5.8703,-5.87,-5.8736,-5.878,-5.8638,-5.866,-5.8623,-5.8617,-5.8657,-5.8659,-5.8672,-5.8784,-5.8784,-5.8653,-5.8656,-5.8659,-5.866,0,0,0,0,0,0,0,-5.8682,-5.869,-5.8777,-5.8716,-5.8709,-5.8674,-5.8673,-5.8744,-5.8691,-5.8658,-5.8647,-5.8649,-5.8652,-5.8667,-5.8671,-5.8784,-5.8653,-5.8658,-5.8661,-5.8663,-5.902,-5.9026,0,0,0,0,0,0,-5.8689,-5.8689,-5.8777,-5.8777,-5.8679,-5.8681,-5.868,-5.8707,-5.8689,-5.8681,-5.8654,-5.8643,-5.8661,-5.8665,-5.8671,-5.8844,-5.8659,-5.8664,-5.8667,-5.9014,-5.9022,-5.9028,0,0,0,0,0,0,-5.8687,-5.8698,-5.8777,-5.873,-5.8738,-5.869,-5.8722,-5.871,-5.8725,-5.8687,-5.8677,-5.8679,-5.8656,-5.8663,-5.8757,-5.8842,-5.8666,-5.8671,-5.9007,-5.9017,-5.9025,-5.9192,0,0,0,0,0,0,-5.8684,-5.8698,-5.8753,-5.8732,-5.8741,-5.8863,-5.8727,-5.8714,-5.8734,-5.8719,-5.8707,-5.87,-5.8652,-5.875,-5.8763,-5.8847,-5.8676,-5.8999,-5.9011,-5.9022,-5.9178,-5.9205,-5.9229,0,0,0,0,0,-5.868,-5.88,-5.8757,-5.8768,-5.8808,-5.8868,-5.8873,-5.8815,-5.8742,-5.8797,-5.8773,-5.87,-5.8831,-5.8761,-5.8774,-5.8861,-5.8993,-5.9008,-5.9021,-5.9167,-5.92,-5.9228,0,0,0,0,0,0,-5.8832,-5.8796,-5.8747,-5.8864,-5.887,-5.8843,-5.8911,-5.8851,-5.8879,-5.8864,-5.8791,-5.879,-5.8896,-5.8888,-5.881,-5.9004,-5.8899,-5.8917,-5.9006,-5.9037,-5.9062,-5.9061,-5.868,0,0,0,0,0,-5.8879,-5.893,-5.8896,-5.9002,-5.9008,-5.896,-5.8983,-5.8939,-5.8942,-5.8944,-5.8927,-5.8934,-5.8977,-5.9006,-5.9043,-5.9177,-5.9173,-5.9243,-5.9269,-5.929,-5.9305,-5.9377,-5.9408,-5.9074,-5.9074,-5.9074,0,0,-5.8977,-5.8963,-5.9,-5.9032,-5.9032,-5.9087,-5.8963,-5.9026,-5.9067,-5.8954,-5.9042,-5.903,-5.9033,-5.9149,-5.9198,-5.9145,-5.9397,-5.9307,-5.9324,-5.9328,-5.9395,-5.9426,-5.9455,-5.9084,-5.9082,-5.908,0,0,-5.9183,-5.9178,-5.9266,-5.9268,-5.9269,-5.9237,-5.9259,-5.9242,-5.9229,-5.9317,-5.9234,-5.9282,-5.9357,-5.9363,-5.9376,-5.9589,-5.9523,-5.9603,-5.9734,-5.9805,-5.9832,-5.9855,-5.9932,-5.996,-5.9619,-5.9619,-5.962,0,-5.9304,-5.9383,-5.9319,-5.9389,-5.9406,-5.9307,-5.9397,-5.9403,-5.9417,-5.9432,-5.9372,-5.9465,-5.946,-5.9576,-5.9629,-5.9642,-5.9666,-5.9603,-5.9833,-5.9855,-5.9876,-5.9949,-5.9978,-5.9629,-5.9628,-5.9627,-5.9626,0,-5.9533,-5.959,-5.9661,-5.9677,-5.9703,-5.9783,-5.9732,-5.9766,-5.972,-5.9695,-5.9787,-5.9778,-5.9812,-5.9837,-5.9792,-5.9948,-5.9915,-5.9845,-5.9738,-5.9919,-5.9986,-6.0013,-5.9643,-5.9639,-5.9637,-5.9634,0,0,-5.9833,-5.9814,-5.9841,-5.9848,-5.9843,-5.9886,-5.9963,-5.9996,-6.0028,-6.0041,-6.0105,-6.0172,-6.0108,-6.0123,-6.0079,-6.0141,-6.0312,-6.0064,-6.0063,-6.0111,-6.0485,-6.0537,-6.057,-6.0269,-6.0274,-6.0278,-6.0485,0,-6.0033,-6.0161,-6.0107,-6.0241,-6.0294,-6.0202,-6.0269,-6.0274,-6.0253,-6.0296,-6.0273,-6.0322,-6.0234,-6.0243,-6.0301,-6.0279,-6.0386,-6.0263,-6.0328,-6.0332,-6.033,-6.0605,-6.066,-6.0855,-6.051,-6.0515,-6.0518,0,-6.0283,-6.0308,-6.0447,-6.0435,-6.0455,-6.0516,-6.0543,-6.0585,-6.059,-6.0571,-6.059,-6.0532,-6.0608,-6.0503,-6.0607,-6.0525,-6.0549,-6.0543,-6.0549,-6.0553,-6.0436,-6.0617,-6.0916,-6.0946,-6.0558,-6.0555,-6.0552,0,-6.0489,-6.0557,-6.0649,-6.0658,-6.0646,-6.0691,-6.0688,-6.0688,-6.0712,-6.0737,-6.0753,-6.0786,-6.0805,-6.0834,-6.0788,-6.0715,-6.09,-6.079,-6.0887,-6.0889,-6.093,-6.0928,-6.1238,-6.0946,-6.0945,-6.0945,-6.0944,0,-6.0718,-6.0807,-6.0741,-6.0798,-6.0896,-6.0835,-6.0934,-6.0921,-6.0922,-6.0976,-6.0899,-6.0952,-6.0888,-6.0936,-6.0901,-6.0994,-6.1003,-6.099,-6.098,-6.0997,-6.0999,-6.1011,-6.0997,-6.0952,-6.0951,-6.0949,-6.0948,0,-6.0964,-6.0923,-6.1018,-6.1,-6.0997,-6.1071,-6.1055,-6.1108,-6.1083,-6.1153,-6.1166,-6.1127,-6.1179,-6.1136,-6.1187,-6.1163,-6.1287,-6.1257,-6.1285,-6.1277,-6.1377,-6.1368,-6.1706,-6.1747,-6.1429,-6.1432,-6.1434,0,-6.1113,-6.1179,-6.1168,-6.1199,-6.1201,-6.1251,-6.1276,-6.1219,-6.1248,-6.1261,-6.1313,-6.1359,-6.1392,-6.148,-6.1457,-6.1496,-6.1467,-6.1582,-6.1472,-6.1488,-6.1469,-6.1466,-6.1473,-6.1605,-6.1608,-6.1611,-6.1614,0,-6.1382,-6.1359,-6.1397,-6.143,-6.1462,-6.1485,-6.1502,-6.1531,-6.1473,-6.1511,-6.1563,-6.1589,-6.1641,-6.1688,-6.172,-6.1718,-6.1658,-6.1649,-6.1674,-6.1692,-6.1706,-6.1701,-6.1346,-6.1641,-6.1639,-6.1637,-6.1635,-6.1634,-6.1583,-6.1639,-6.1641,-6.1687,-6.1694,-6.1712,-6.1761,-6.1743,-6.1785,-6.1823,-6.1787,-6.1851,-6.1857,-6.1894,-6.19,-6.195,-6.1902,-6.1938,-6.1947,-6.1957,-6.1972,-6.1699,-6.1956,-6.1955,-6.1954,-6.1954,-6.1953,0,-6.1849,-6.1846,-6.1889,-6.1915,-6.1953,-6.1892,-6.1909,-6.1944,-6.2001,-6.2011,-6.2046,-6.2108,-6.2153,-6.2135,-6.2176,-6.222,-6.2193,-6.2233,-6.2229,-6.223,-6.2011,-6.1986,-6.2254,-6.2254,-6.2254,-6.2253,-6.2253,-6.2253,-6.1991,-6.2082,-6.2061,-6.2156,-6.2152,-6.2213,-6.2228,-6.2246,-6.2254,-6.2326,-6.2364,-6.2351,-6.2351,-6.2392,-6.2432,-6.2426,-6.2445,-6.2495,-6.2479,-6.2275,-6.2245,-6.2217,-6.2193,-6.2499,-6.2499,-6.2693,-6.2694,-6.2696]},{"header":{"parameterUnit":"m.s-1","parameterCategory":1,"la1":30.2991,"la2":30.254,"lo1":-89.0895,"lo2":-89.0444,"dy":0.0017,"dx":0.0017,"nx":28,"ny":28,"refTime":"2024-08-22T21:00:00:Z","depth":0,"parameterNumber":3,"parameterNumberName":"V-component_of_WINDS"},"data":[0,0,0,0,0,0,0,0,0,0,0,0,0,0,0,0,0,0,0,0,0,0,0,0,0,0,0,0,0,0,0,0,0,0,0,0,0,0,0,0,0,0,0,0,0,0,0,0,0,0,0,0,0,0,0,0,0,0,1.2903,1.2902,0,1.2897,1.2896,1.2896,1.2945,1.2947,1.2948,1.295,1.2936,1.2935,1.2933,0,0,0,0,0,0,0,0,0,0,0,0,0,1.2951,1.295,1.2903,1.2902,1.2902,1.2897,1.2896,1.2896,1.2945,1.2947,1.2949,1.295,1.2937,1.2935,1.2933,0,0,0,0,0,0,0,0,0,0,0,0,0,1.2936,1.295,1.2903,1.2926,1.2928,1.2897,1.2896,1.2896,1.2945,1.2947,1.2949,1.2951,1.2937,1.2935,1.2933,1.2876,0,0,1.2925,1.2924,0,0,0,0,0,0,0,0,1.2937,1.2934,1.2923,1.2925,1.2927,1.2924,1.2909,1.2889,1.2944,1.2938,1.295,1.2952,1.293,1.2928,1.2922,1.2875,1.2874,1.2925,1.2923,1.2922,1.2922,0,0,0,0,0,0,0,1.2938,1.2935,1.29,1.2923,1.2925,1.2936,1.2936,1.2905,1.2922,1.2939,1.2943,1.2942,1.2932,1.2925,1.2922,1.2874,1.2925,1.2923,1.2921,1.292,1.278,1.2778,0,0,0,0,0,0,1.2936,1.2935,1.29,1.29,1.2937,1.2933,1.2933,1.2923,1.2923,1.2925,1.294,1.2944,1.2928,1.2925,1.2922,1.2855,1.2922,1.292,1.2919,1.2783,1.278,1.2778,0,0,0,0,0,0,1.2937,1.2933,1.29,1.2919,1.2915,1.293,1.2918,1.2921,1.2915,1.2924,1.2926,1.293,1.2929,1.2926,1.2888,1.2855,1.2919,1.2917,1.2785,1.2782,1.2779,1.2721,0,0,0,0,0,0,1.2939,1.2933,1.2912,1.2918,1.2914,1.2867,1.2916,1.292,1.2911,1.2916,1.2915,1.2917,1.2931,1.2891,1.2885,1.2853,1.2915,1.2788,1.2784,1.278,1.2725,1.2716,1.2708,0,0,0,0,0,1.294,1.2894,1.2911,1.2906,1.2889,1.2865,1.2863,1.2882,1.2908,1.2887,1.2893,1.2917,1.2861,1.2887,1.288,1.2847,1.279,1.2785,1.278,1.2729,1.2718,1.2708,0,0,0,0,0,0,1.2882,1.2896,1.2914,1.2869,1.2866,1.2874,1.2847,1.2869,1.2856,1.2861,1.2883,1.2882,1.284,1.284,1.2869,1.2793,1.283,1.2823,1.2793,1.2782,1.2773,1.2773,1.2913,0,0,0,0,0,1.2864,1.2846,1.2858,1.2817,1.2815,1.2831,1.2822,1.2837,1.2834,1.2832,1.2835,1.2829,1.281,1.2797,1.278,1.2727,1.2727,1.2701,1.2692,1.2685,1.2678,1.265,1.2638,1.2761,1.2761,1.2761,0,0,1.2826,1.2832,1.2818,1.2806,1.2805,1.2783,1.283,1.2804,1.2788,1.2827,1.2791,1.2794,1.2789,1.2743,1.2723,1.2742,1.2645,1.2679,1.2673,1.267,1.2644,1.2632,1.2622,1.2758,1.2758,1.2759,0,0,1.2746,1.275,1.2716,1.2715,1.2715,1.2727,1.2719,1.2724,1.2728,1.2693,1.2722,1.2703,1.267,1.2665,1.2658,1.258,1.2601,1.2574,1.2525,1.2498,1.2488,1.248,1.245,1.244,1.2568,1.2567,1.2567,0,1.2698,1.2669,1.2695,1.2669,1.2662,1.2701,1.2666,1.2663,1.2656,1.265,1.2672,1.2633,1.2632,1.2586,1.2567,1.2561,1.2551,1.2572,1.2488,1.248,1.2472,1.2444,1.2433,1.2564,1.2564,1.2565,1.2565,0,1.261,1.259,1.2562,1.2558,1.2548,1.2518,1.2538,1.2525,1.2542,1.2551,1.2516,1.2517,1.2501,1.2492,1.2507,1.2448,1.246,1.2485,1.2522,1.2457,1.2431,1.242,1.2559,1.256,1.2561,1.2562,0,0,1.2489,1.2502,1.2492,1.249,1.2494,1.2478,1.2449,1.2437,1.2425,1.242,1.2395,1.2368,1.2392,1.2384,1.24,1.2376,1.2313,1.2404,1.2404,1.2385,1.2246,1.2226,1.2213,1.2329,1.2327,1.2325,1.2246,0,1.241,1.2364,1.2388,1.2337,1.2318,1.2355,1.2331,1.2329,1.2338,1.2322,1.233,1.231,1.2344,1.234,1.2318,1.2325,1.2285,1.2332,1.2303,1.2302,1.2301,1.22,1.2178,1.2103,1.2237,1.2235,1.2234,0,1.2311,1.2304,1.2253,1.2262,1.2255,1.2232,1.2223,1.2208,1.2207,1.2215,1.2208,1.223,1.2201,1.2242,1.2201,1.2233,1.2223,1.2225,1.2223,1.2218,1.2262,1.2191,1.208,1.2068,1.2218,1.222,1.2221,0,1.2226,1.2204,1.2171,1.2169,1.2179,1.2162,1.2165,1.2167,1.2158,1.215,1.2145,1.2133,1.2125,1.2115,1.2132,1.216,1.2089,1.2131,1.2093,1.2092,1.2073,1.2074,1.1957,1.2071,1.2071,1.2072,1.2072,0,1.2133,1.21,1.2133,1.2112,1.2076,1.2104,1.2066,1.2073,1.2075,1.2055,1.2087,1.2067,1.2093,1.2075,1.2089,1.2053,1.205,1.2054,1.2057,1.205,1.2049,1.2041,1.2046,1.2069,1.2069,1.207,1.207,0,1.203,1.2052,1.2018,1.2031,1.2034,1.2006,1.2017,1.1998,1.201,1.1984,1.198,1.1998,1.1979,1.1997,1.1978,1.1988,1.194,1.1952,1.194,1.1942,1.1903,1.1906,1.1775,1.1759,1.1886,1.1884,1.1883,0,1.1968,1.1944,1.1956,1.1947,1.1949,1.1932,1.1925,1.1952,1.1942,1.1941,1.1921,1.1906,1.1895,1.1863,1.1873,1.1859,1.187,1.1825,1.1867,1.1861,1.1867,1.1867,1.1864,1.1815,1.1814,1.1813,1.1812,0,1.1856,1.1869,1.1858,1.1851,1.1841,1.1836,1.1834,1.1823,1.1852,1.1839,1.1822,1.1814,1.1797,1.178,1.177,1.1771,1.1795,1.1799,1.1789,1.1779,1.1773,1.1774,1.1914,1.1801,1.1802,1.1803,1.1803,1.1804,1.1771,1.1751,1.1757,1.1744,1.1746,1.1743,1.1726,1.1738,1.1724,1.1714,1.1731,1.1709,1.171,1.17,1.1699,1.1681,1.1699,1.1685,1.1681,1.1677,1.167,1.1779,1.1679,1.168,1.168,1.168,1.168,0,1.1658,1.1665,1.1653,1.165,1.1639,1.1667,1.1666,1.1655,1.1636,1.1637,1.1626,1.1606,1.1592,1.1602,1.1589,1.1573,1.1584,1.1568,1.1568,1.1568,1.1655,1.1664,1.156,1.156,1.156,1.156,1.156,1.156,1.1598,1.1567,1.158,1.1549,1.1556,1.1537,1.1534,1.1531,1.1532,1.1509,1.1498,1.1507,1.1511,1.1499,1.1487,1.149,1.1483,1.1463,1.147,1.155,1.1562,1.1573,1.1582,1.1462,1.1462,1.1384,1.1384,1.1383]}]]